Regional Weather Roundup
Issued by NWS Sterling, VA

Home | Current Version | Previous Version | Graphics & Text | Print | Product List | Glossary On
Versions: 1 2 3 4 5 6 7 8 9 10 11 12 13 14 15 16 17 18 19 20 21 22 23 24 25 26 27 28 29 30 31 32 33 34 35 36 37 38 39 40 41 42 43 44 45 46
000
ASUS41 KLWX 280310
RWRLWX

REGIONAL WEATHER ROUNDUP
NATIONAL WEATHER SERVICE BALTIMORE MD/WASHINGTON DC
1100 PM EDT MON JUL 27 2015

Note: "FAIR" indicates few or no clouds below 12,000 feet
with no significant weather and/or obstructions to visibility.
 TC=TEMPERATURE CELSIUS

 * =Non NWS site. Station does not report precipitation (e.g. rain,
    snow, etc.), thunder, or fog.

DCZ001-MDZ009-015-VAZ040>042-051-053>054-280400-
WASHINGTON METRO

CITY           SKY/WX    TMP DP  RH WIND       PRES   REMARKS
WASHINGTON NAT PTCLDY    82  75  79 CALM      30.00S
DULLES         PTCLDY    76  70  82 CALM      30.01S
ANDREWS AFB    CLEAR     75  74  96 E6        30.00S
FT BELVOIR     CLEAR     74  72  93 SE2       30.00S
QUANTICO       CLEAR     78  69  73 SW8       30.01R
COLLEGE PARK*  PTCLDY    73  73 100 CALM      30.00S
LEESBURG*      PTCLDY    77  73  88 CALM      30.02S
MANASSAS*      CLEAR     75  75 100 CALM      30.00
GAITHERSBURG*  CLEAR     73  68  83 CALM      30.06R

$$

MDZ006>007-011-014-280400-
BALTIMORE METRO

CITY           SKY/WX    TMP DP  RH WIND       PRES   REMARKS
BWI AIRPORT    PTCLDY    76  74  93 CALM      30.00S
MD SCIENCE CTR   N/A     80  74  81 MISG      30.01S
MARTIN STATE   MOCLDY    79  77  94 CALM      30.02S
ANNAPOLIS      MOCLDY    79  72  79 S6        29.99F
FORT MEADE*      N/A     72  70  94 CALM      30.03S VSB 3/4

$$

MDZ012-015-019>023-280400-
MARYLAND EASTERN SHORE

CITY           SKY/WX    TMP DP  RH WIND       PRES   REMARKS
OCEAN CITY     CLEAR     77  72  84 VRB3      30.02F
SALISBURY      CLEAR     73  72  96 CALM      30.02S
BAY BRIDGE AP*   N/A     79  72  78 S6        30.00S
CAMBRIDGE*     CLEAR     77  72  83 SE5       30.00F
EASTON*        CLEAR     77  76  98 SE5       30.05S

$$

MDZ017>025-280400-
SOUTHERN MARYLAND

CITY           SKY/WX    TMP DP  RH WIND       PRES   REMARKS
PATUXENT RIVER PTCLDY    76  72  87 SW7       30.00S
ST INIGOES     PTCLDY    76  69  79 SW5       30.00S
LEONARDTOWN*   PTCLDY    73  70  88 CALM      30.03R

$$

MDZ003>005-280400-
NORTH CENTRAL MARYLAND

CITY           SKY/WX    TMP DP  RH WIND       PRES   REMARKS
FREDERICK*       N/A     72  70  94 MISG        N/A
HAGERSTOWN APT PTCLDY    78  71  79 E3        30.03R
WESTMINSTER*   CLEAR     75  72  88 CALM      30.04S

$$

MDZ501>502-280400-
WESTERN MARYLAND

CITY           SKY/WX    TMP DP  RH WIND       PRES   REMARKS
OAKLAND*       CLEAR     68 N/A N/A SE5       30.13S
CUMBERLAND*    CLEAR     75  72  88 CALM      30.06S

$$

VAZ025>031-280400-
SHENANDOAH VALLEY

CITY           SKY/WX    TMP DP  RH WIND       PRES   REMARKS
WINCHESTER*    PTCLDY    77  72  83 CALM      30.03S
FRONT ROYAL*   FAIR      70  70 100 CALM      30.02S
LURAY*         FAIR      72  72 100 SE5       30.04S
NEW MARKET*    FAIR      69  69  99 CALM      30.03S
STAUNTON*      PTCLDY    71  67  89 CALM      30.07R
WAYNESBORO*    FAIR      69  69 100 CALM      30.07R

$$

WVZ021-048>050-054>055-280400-
EASTERN WEST VIRGINIA PANHANDLE

CITY           SKY/WX    TMP DP  RH WIND       PRES   REMARKS
MARTINSBURG    CLOUDY    75  71  87 CALM      30.02S
PETERSBURG*    PTCLDY   N/A N/A N/A CALM      30.04S

$$

VAZ036>039-050-280400-
CENTRAL FOOTHILLS

CITY           SKY/WX    TMP DP  RH WIND       PRES   REMARKS
CHARLOTTESVILL MOCLDY    73  71  93 CALM      30.03R
CULPEPER*      CLEAR     72  70  93 CALM      30.02R
ORANGE*        CLEAR     72  70  94 CALM      30.03S
GORDONSVILLE*  MOCLDY    72  70  94 CALM      30.02R
WARRENTON*     FAIR      74  73  98 SE3       30.01R

$$

VAZ055>057-280400-
NORTH AND CENTRAL PIEDMONT

CITY           SKY/WX    TMP DP  RH WIND       PRES   REMARKS
FREDERICKSBRG* CLEAR     74  71  88 S3        30.01R
STAFFORD*      CLEAR     72  68  87 S5        30.05S

$$

NCZ024-NYZ072-PAZ021-071-VAZ022-071-280400-
OTHER REGIONAL OBSERVATIONS

CITY           SKY/WX    TMP DP  RH WIND       PRES   REMARKS
NEW YORK CITY  CLEAR     78  67  68 CALM      30.04S
PHILADELPHIA   MOCLDY    78  70  76 CALM      30.02S
PITTSBURGH     PTCLDY    77  63  61 CALM      30.02R
ROANOKE        CLOUDY    79  73  82 CALM      30.05R
RICHMOND       MOCLDY    77  74  90 SE5       30.01R
RALEIGH        PTCLDY    80  70  71 SE6       30.02R

$$

ANZ530>537-280400-
MARINE OBSERVATIONS

STATION/POSITION TIME  TEMP    WIND        PRES
                       AIR SEA DIR/SP/G
                 (UTC) (F)     (DEG/KT/KT) (MB)
THOMAS PT LIGHT  NOT AVBL
BALT KEY BRIDGE  0200   80     150/  8/ 10 1015.7R
COVE POINT       0200   80     200/ 12/ 14 1016.6R
LEWISETTA        0200   78 83  240/  5/  5 1015.7R
SOLOMONS ISLAND  0200      83                N/A

$$



USA.gov is the U.S. government's official web portal to all federal, state and local government web resources and services.